| time (UTC) | temp F | wind direction | speed MPH | gust MPH | rain 1hr in | rain 24hr in | rain mn in | humidity % | barometer mb |
| 20260510015005 | 58 | 0.0 | 0.0 | 0.00 | 0.00 | 0.00 | 26 | 994.4 | |
| 20260510014006 | 57 | 0.0 | 0.0 | 0.00 | 0.00 | 0.00 | 25 | 994.6 | |
| 20260510013216 | 57 | 0.0 | 0.0 | 0.00 | 0.00 | 0.00 | 23 | 994.7 | |
| 20260510012006 | 57 | 0.0 | 0.0 | 0.00 | 0.00 | 0.00 | 24 | 994.7 | |
| 20260510011006 | 58 | 0.0 | 0.0 | 0.00 | 0.00 | 0.00 | 26 | 994.8 | |
| 20260510010006 | 57 | 0.0 | 0.0 | 0.00 | 0.00 | 0.00 | 29 | 994.9 | |
| 20260510005006 | 57 | 0.0 | 0.0 | 0.00 | 0.00 | 0.00 | 29 | 994.9 | |
| 20260510004006 | 58 | 0.0 | 0.0 | 0.00 | 0.00 | 0.00 | 30 | 995.1 | |
| 20260510003006 | 59 | 0.0 | 0.0 | 0.00 | 0.00 | 0.00 | 33 | 995.0 | |
| 20260510002006 | 58 | 0.0 | 0.0 | 0.00 | 0.00 | 0.00 | 35 | 995.2 | |
| 20260510001006 | 57 | 0.0 | 0.0 | 0.00 | 0.00 | 0.00 | 35 | 995.1 | |
| 20260510000006 | 56 | 0.0 | 0.0 | 0.00 | 0.00 | 0.00 | 36 | 995.2 | |
| 20260509235007 | 57 | 0.0 | 0.0 | 0.00 | 0.00 | 0.00 | 37 | 995.3 | |
| 20260509234005 | 57 | 0.0 | 0.0 | 0.00 | 0.00 | 0.00 | 38 | 995.3 | |
| 20260509233217 | 56 | 0.0 | 0.0 | 0.00 | 0.00 | 0.00 | 39 | 995.4 | |
| 20260509232005 | 55 | 0.0 | 0.0 | 0.00 | 0.00 | 0.00 | 40 | 995.4 | |
| 20260509231005 | 54 | 0.0 | 0.0 | 0.00 | 0.00 | 0.00 | 40 | 995.4 | |
| 20260509230006 | 53 | 0.0 | 0.0 | 0.00 | 0.00 | 0.00 | 40 | 995.4 | |
| 20260509225006 | 56 | 0.0 | 0.0 | 0.00 | 0.00 | 0.00 | 41 | 995.4 | |
| 20260509224006 | 54 | 0.0 | 0.0 | 0.00 | 0.00 | 0.00 | 41 | 995.4 | |
| 20260509223216 | 53 | 0.0 | 0.0 | 0.00 | 0.00 | 0.00 | 42 | 995.4 | |
| 20260509222216 | 53 | 0.0 | 0.0 | 0.00 | 0.00 | 0.00 | 42 | 995.4 | |
| 20260509221216 | 52 | 0.0 | 0.0 | 0.00 | 0.00 | 0.00 | 42 | 995.4 | |
| 20260509220006 | 53 | 0.0 | 0.0 | 0.00 | 0.00 | 0.00 | 43 | 995.4 | |
| 20260509215006 | 54 | 0.0 | 0.0 | 0.00 | 0.00 | 0.00 | 44 | 995.5 | |
| 20260509214216 | 53 | 0.0 | 0.0 | 0.00 | 0.00 | 0.00 | 45 | 995.6 | |
| 20260509213006 | 52 | 0.0 | 0.0 | 0.00 | 0.00 | 0.00 | 46 | 995.6 | |
| 20260509212006 | 51 | 0.0 | 0.0 | 0.00 | 0.00 | 0.00 | 46 | 995.7 | |
| 20260509211216 | 50 | 0.0 | 0.0 | 0.00 | 0.00 | 0.00 | 47 | 995.8 | |
| 20260509210005 | 50 | 0.0 | 0.0 | 0.00 | 0.00 | 0.00 | 46 | 995.9 | |
| 20260509205007 | 51 | 0.0 | 0.0 | 0.00 | 0.00 | 0.00 | 48 | 995.9 | |
| 20260509204005 | 51 | 0.0 | 0.0 | 0.00 | 0.00 | 0.00 | 49 | 996.0 | |
| 20260509203006 | 50 | 0.0 | 0.0 | 0.00 | 0.00 | 0.00 | 50 | 996.1 | |
| 20260509202005 | 50 | 0.0 | 0.0 | 0.00 | 0.00 | 0.00 | 52 | 996.2 | |
| 20260509201006 | 49 | 0.0 | 0.0 | 0.00 | 0.00 | 0.00 | 54 | 996.3 | |
| 20260509200006 | 49 | 0.0 | 0.0 | 0.00 | 0.00 | 0.00 | 57 | 996.3 | |
| 20260509195006 | 47 | 0.0 | 0.0 | 0.00 | 0.00 | 0.00 | 57 | 996.4 | |
| 20260509194006 | 46 | 0.0 | 0.0 | 0.00 | 0.00 | 0.00 | 59 | 996.5 | |
| 20260509193006 | 46 | 0.0 | 0.0 | 0.00 | 0.00 | 0.00 | 60 | 996.5 | |
| 20260509192005 | 45 | 0.0 | 0.0 | 0.00 | 0.00 | 0.00 | 60 | 996.6 | |
| 20260509191006 | 44 | 0.0 | 0.0 | 0.00 | 0.00 | 0.00 | 61 | 996.7 | |
| 20260509190006 | 44 | 0.0 | 0.0 | 0.00 | 0.00 | 0.00 | 60 | 996.7 | |
| 20260509185006 | 43 | 0.0 | 0.0 | 0.00 | 0.00 | 0.00 | 61 | 996.8 | |
| 20260509184006 | 43 | 0.0 | 0.0 | 0.00 | 0.00 | 0.00 | 62 | 996.8 | |
| 20260509183006 | 43 | 0.0 | 0.0 | 0.00 | 0.00 | 0.00 | 62 | 996.8 | |
| 20260509182006 | 43 | 0.0 | 0.0 | 0.00 | 0.00 | 0.00 | 63 | 996.9 | |
| 20260509181214 | 42 | 0.0 | 0.0 | 0.00 | 0.00 | 0.00 | 63 | 996.9 | |
| 20260509180006 | 41 | 0.0 | 0.0 | 0.00 | 0.00 | 0.00 | 63 | 997.0 | |
| 20260509175214 | 41 | 0.0 | 0.0 | 0.00 | 0.00 | 0.00 | 62 | 997.0 | |
| 20260509174006 | 41 | 0.0 | 0.0 | 0.00 | 0.00 | 0.00 | 61 | 997.0 | |
| 20260509173005 | 40 | 0.0 | 0.0 | 0.00 | 0.00 | 0.00 | 61 | 997.0 | |
| 20260509172216 | 39 | 0.0 | 0.0 | 0.00 | 0.00 | 0.00 | 61 | 997.2 | |
| 20260509171216 | 39 | 0.0 | 0.0 | 0.00 | 0.00 | 0.00 | 62 | 997.3 | |
| 20260509170006 | 38 | 0.0 | 0.0 | 0.00 | 0.00 | 0.00 | 62 | 997.4 | |
| 20260509165216 | 38 | 0.0 | 0.0 | 0.00 | 0.00 | 0.00 | 62 | 997.5 | |
| 20260509164005 | 38 | 0.0 | 0.0 | 0.00 | 0.00 | 0.00 | 62 | 997.6 | |
| 20260509163007 | 38 | 0.0 | 0.0 | 0.00 | 0.00 | 0.00 | 62 | 997.7 | |
| 20260509162005 | 38 | 0.0 | 0.0 | 0.00 | 0.00 | 0.00 | 63 | 997.8 | |
| 20260509161006 | 37 | 0.0 | 0.0 | 0.00 | 0.00 | 0.00 | 63 | 997.8 | |
| 20260509160216 | 37 | 0.0 | 0.0 | 0.00 | 0.00 | 0.00 | 63 | 997.9 | |
| 20260509155006 | 36 | 0.0 | 0.0 | 0.00 | 0.00 | 0.00 | 64 | 997.9 | |
| 20260509154005 | 36 | 0.0 | 0.0 | 0.00 | 0.00 | 0.00 | 63 | 998.0 | |
| 20260509153006 | 35 | 0.0 | 0.0 | 0.00 | 0.00 | 0.00 | 64 | 998.1 | |
| 20260509152006 | 35 | 0.0 | 0.0 | 0.00 | 0.00 | 0.00 | 64 | 998.1 | |
| 20260509151006 | 35 | 0.0 | 0.0 | 0.00 | 0.00 | 0.00 | 64 | 998.2 | |
| 20260509150006 | 34 | 0.0 | 0.0 | 0.00 | 0.00 | 0.00 | 63 | 998.3 | |
| 20260509145006 | 34 | 0.0 | 0.0 | 0.00 | 0.00 | 0.00 | 63 | 998.3 | |
| 20260509144005 | 33 | 0.0 | 0.0 | 0.00 | 0.00 | 0.00 | 62 | 998.4 | |
| 20260509143006 | 33 | 0.0 | 0.0 | 0.00 | 0.00 | 0.00 | 62 | 998.7 | |
| 20260509142215 | 33 | 0.0 | 0.0 | 0.00 | 0.00 | 0.00 | 62 | 998.8 | |
| 20260509141006 | 33 | 0.0 | 0.0 | 0.00 | 0.00 | 0.00 | 62 | 998.8 | |
| 20260509140006 | 33 | 0.0 | 0.0 | 0.00 | 0.00 | 0.00 | 62 | 999.0 | |
| 20260509135217 | 33 | 0.0 | 0.0 | 0.00 | 0.00 | 0.00 | 62 | 999.0 | |
| 20260509134006 | 33 | 0.0 | 0.0 | 0.00 | 0.00 | 0.00 | 61 | 999.2 | |
| 20260509133006 | 33 | 0.0 | 0.0 | 0.00 | 0.00 | 0.00 | 61 | 999.3 | |
| 20260509132006 | 33 | 0.0 | 0.0 | 0.00 | 0.00 | 0.00 | 61 | 999.4 | |
| 20260509131217 | 32 | 0.0 | 0.0 | 0.00 | 0.00 | 0.00 | 61 | 999.5 | |
| 20260509130005 | 32 | 0.0 | 0.0 | 0.00 | 0.00 | 0.00 | 61 | 999.7 | |
| 20260509125005 | 32 | 0.0 | 0.0 | 0.00 | 0.00 | 0.00 | 61 | 999.7 | |
| 20260509124006 | 32 | 0.0 | 0.0 | 0.00 | 0.00 | 0.00 | 60 | 999.7 | |
| 20260509123216 | 32 | 0.0 | 0.0 | 0.00 | 0.00 | 0.00 | 60 | 999.8 | |
| 20260509122005 | 32 | 0.0 | 0.0 | 0.00 | 0.00 | 0.00 | 60 | 999.8 | |
| 20260509121007 | 32 | 0.0 | 0.0 | 0.00 | 0.00 | 0.00 | 60 | 999.8 | |
| 20260509120006 | 32 | 0.0 | 0.0 | 0.00 | 0.00 | 0.00 | 60 | 1000.0 | |
| 20260509115006 | 32 | 0.0 | 0.0 | 0.00 | 0.00 | 0.00 | 60 | 1000.1 | |
| 20260509114005 | 32 | 0.0 | 0.0 | 0.00 | 0.00 | 0.00 | 60 | 1000.1 | |
| 20260509113005 | 32 | 0.0 | 0.0 | 0.00 | 0.00 | 0.00 | 59 | 1000.2 | |
| 20260509112006 | 32 | 0.0 | 0.0 | 0.00 | 0.00 | 0.00 | 59 | 1000.3 | |
| 20260509111006 | 31 | 0.0 | 0.0 | 0.00 | 0.00 | 0.00 | 58 | 1000.3 | |
| 20260509110216 | 31 | 0.0 | 0.0 | 0.00 | 0.00 | 0.00 | 58 | 1000.3 | |
| 20260509105006 | 31 | 0.0 | 0.0 | 0.00 | 0.00 | 0.00 | 58 | 1000.3 | |
| 20260509104216 | 31 | 0.0 | 0.0 | 0.00 | 0.00 | 0.00 | 58 | 1000.4 | |
| 20260509103006 | 31 | 0.0 | 0.0 | 0.00 | 0.00 | 0.00 | 58 | 1000.4 | |
| 20260509102216 | 31 | 0.0 | 0.0 | 0.00 | 0.00 | 0.00 | 58 | 1000.5 | |
| 20260509101006 | 31 | 0.0 | 0.0 | 0.00 | 0.00 | 0.00 | 58 | 1000.6 | |
| 20260509100215 | 31 | 0.0 | 0.0 | 0.00 | 0.00 | 0.00 | 58 | 1000.6 | |
| 20260509095005 | 31 | 0.0 | 0.0 | 0.00 | 0.00 | 0.00 | 57 | 1000.7 | |
| 20260509094216 | 30 | 0.0 | 0.0 | 0.00 | 0.00 | 0.00 | 57 | 1000.8 | |
| 20260509093005 | 30 | 0.0 | 0.0 | 0.00 | 0.00 | 0.00 | 57 | 1000.9 | |
| 20260509092006 | 31 | 0.0 | 0.0 | 0.00 | 0.00 | 0.00 | 57 | 1000.9 | |
| 20260509091006 | 31 | 0.0 | 0.0 | 0.00 | 0.00 | 0.00 | 58 | 1001.0 | |
| 20260509090006 | 31 | 0.0 | 0.0 | 0.00 | 0.00 | 0.00 | 57 | 1001.1 | |
| 20260509085005 | 31 | 0.0 | 0.0 | 0.00 | 0.00 | 0.00 | 58 | 1001.2 | |
| 20260509084215 | 31 | 0.0 | 0.0 | 0.00 | 0.00 | 0.00 | 57 | 1001.4 | |
| 20260509083005 | 31 | 0.0 | 0.0 | 0.00 | 0.00 | 0.00 | 58 | 1001.5 | |
| 20260509082006 | 31 | 0.0 | 0.0 | 0.00 | 0.00 | 0.00 | 57 | 1001.5 | |
| 20260509081006 | 31 | 0.0 | 0.0 | 0.00 | 0.00 | 0.00 | 57 | 1001.6 | |
| 20260509080005 | 31 | 0.0 | 0.0 | 0.00 | 0.00 | 0.00 | 57 | 1001.7 | |
| 20260509075005 | 30 | 0.0 | 0.0 | 0.00 | 0.00 | 0.00 | 56 | 1001.7 | |
| 20260509074005 | 30 | 0.0 | 0.0 | 0.00 | 0.00 | 0.00 | 55 | 1001.6 | |
| 20260509073006 | 30 | 0.0 | 0.0 | 0.00 | 0.00 | 0.00 | 55 | 1001.7 | |
| 20260509072216 | 30 | 0.0 | 0.0 | 0.00 | 0.00 | 0.00 | 55 | 1001.7 | |
| 20260509071214 | 30 | 0.0 | 0.0 | 0.00 | 0.00 | 0.00 | 54 | 1001.7 | |
| 20260509070217 | 31 | 0.0 | 0.0 | 0.00 | 0.00 | 0.00 | 54 | 1001.8 | |
| 20260509065216 | 32 | 0.0 | 0.0 | 0.00 | 0.00 | 0.00 | 53 | 1001.8 | |
| 20260509064006 | 32 | 0.0 | 0.0 | 0.00 | 0.00 | 0.00 | 53 | 1001.9 | |
| 20260509063006 | 33 | 0.0 | 0.0 | 0.00 | 0.00 | 0.00 | 53 | 1001.9 | |
| 20260509062216 | 34 | 0.0 | 0.0 | 0.00 | 0.00 | 0.00 | 53 | 1001.9 | |
| 20260509061006 | 36 | 0.0 | 0.0 | 0.00 | 0.00 | 0.00 | 53 | 1002.0 | |
| 20260509060006 | 37 | 0.0 | 0.0 | 0.00 | 0.00 | 0.00 | 53 | 1002.0 | |
| 20260509055006 | 38 | 0.0 | 0.0 | 0.00 | 0.00 | 0.00 | 53 | 1002.2 | |
| 20260509054216 | 39 | 0.0 | 0.0 | 0.00 | 0.00 | 0.00 | 52 | 1002.1 | |
| 20260509053005 | 40 | 0.0 | 0.0 | 0.00 | 0.00 | 0.00 | 52 | 1002.1 | |
| 20260509052005 | 41 | 0.0 | 0.0 | 0.00 | 0.00 | 0.00 | 52 | 1002.2 | |
| 20260509051006 | 42 | 0.0 | 0.0 | 0.00 | 0.00 | 0.00 | 52 | 1002.3 | |
| 20260509050216 | 42 | 0.0 | 0.0 | 0.00 | 0.00 | 0.00 | 52 | 1002.3 | |
| 20260509045216 | 42 | 0.0 | 0.0 | 0.00 | 0.00 | 0.00 | 52 | 1002.3 | |
| 20260509044006 | 42 | 0.0 | 0.0 | 0.00 | 0.00 | 0.00 | 52 | 1002.3 | |
| 20260509043218 | 42 | 0.0 | 0.0 | 0.00 | 0.00 | 0.00 | 52 | 1002.3 | |
| 20260509042007 | 42 | 0.0 | 0.0 | 0.00 | 0.00 | 0.00 | 51 | 1002.4 | |
| 20260509041005 | 42 | 0.0 | 0.0 | 0.00 | 0.00 | 0.00 | 51 | 1002.5 | |
| 20260509040215 | 42 | 0.0 | 0.0 | 0.00 | 0.00 | 0.00 | 51 | 1002.7 | |
| 20260509035006 | 41 | 0.0 | 0.0 | 0.00 | 0.00 | 0.00 | 51 | 1002.8 | |
| 20260509034215 | 40 | 0.0 | 0.0 | 0.00 | 0.00 | 0.00 | 51 | 1002.9 | |
| 20260509033006 | 40 | 0.0 | 0.0 | 0.00 | 0.00 | 0.00 | 50 | 1003.1 | |
| 20260509032006 | 40 | 0.0 | 0.0 | 0.00 | 0.00 | 0.00 | 50 | 1003.2 | |
| 20260509031006 | 40 | 0.0 | 0.0 | 0.00 | 0.00 | 0.00 | 49 | 1003.2 | |
| 20260509030006 | 41 | 0.0 | 0.0 | 0.00 | 0.00 | 0.00 | 48 | 1003.3 | |
| 20260509025006 | 42 | 0.0 | 0.0 | 0.00 | 0.00 | 0.00 | 46 | 1003.4 | |
| 20260509024006 | 43 | 0.0 | 0.0 | 0.00 | 0.00 | 0.00 | 45 | 1003.5 | |
| 20260509023005 | 44 | 0.0 | 0.0 | 0.00 | 0.00 | 0.00 | 44 | 1003.5 | |
| 20260509022007 | 44 | 0.0 | 0.0 | 0.00 | 0.00 | 0.00 | 43 | 1003.5 | |
| 20260509021215 | 44 | 0.0 | 0.0 | 0.00 | 0.00 | 0.00 | 45 | 1003.6 | |
| 20260509020005 | 44 | 0.0 | 0.0 | 0.00 | 0.00 | 0.00 | 50 | 1003.7 |